Content
SEND FEEDBACK

Daily
Averages
Monthly
Summary
Canada

MONTREAL, QUEBEC


Home > North America > Canada > Quebec
Elevation: 118 feet     Latitude: 45 28N     Longitude: 073 45W

WEATHER
 
SELECT A DAY
Number of Records: 198,744;   Date Range: 1/1/95 - 9/15/14
 
SHARE

PRINT THIS DATA

[ ← Previous Day ]
WEATHER ALMANAC - APRIL 10, 2014
[ Next Day → ]
[ °C ]   °F
Weather ElementAverageHighLow
Temperature45.2 °F60.8 °F (5:00 pm)30.2 °F (2:00 am)
Dewpoint30.5 °F44.6 °F (11:00 pm)23 °F (1:00 am)
Humidity57.3 %82 % (11:00 pm)29 % (8:00 pm)
Barometer29.80 in29.94 in (6:00 am)29.62 in (7:00 pm)
Wind Speed11.7 mph19.6 mph (2:00 pm)
Wind Gust26.5 mph (10:00 pm)
Weather ElementAverage
Visibility22.9 mi
Wind DirectionS (185 °)

Weather ElementTotal
Precipitation---
Heating Degree Days19.5 (Base 65)
Averaged from 28 records on April 10, 2014
WEATHER CONDITIONS BREAKOUT
WIND DIRECTION BREAKOUT
WEATHER BY HOUR - APRIL 10, 2014
[ °C ]   °F
Local TimeTemperatureDewpointHumidityBarometerVisibilityWind DirectionWind SpeedGust SpeedPrecipitationEventsConditions
1:00 AM32.0 °F23.0 °F69 %29.92 in15.0 miSSW (200°)5.8 mphClear
2:00 AM31.0 °F23.0 °F64 %29.92 in15.0 miSSW (210°)4.6 mph
2:00 AM30.2 °F23.0 °F75 %29.92 in15.0 miSSW (210°)5.8 mphClear
3:00 AM30.2 °F24.8 °F80 %29.92 in15.0 miSSW (210°)5.8 mphScattered Clouds
4:00 AM32.0 °F24.8 °F75 %29.93 in15.0 miSSW (210°)8.1 mphMostly Cloudy
5:00 AM32.0 °F24.8 °F75 %29.93 in15.0 miSouth (180°)5.8 mphScattered Clouds
6:00 AM30.2 °F24.8 °F80 %29.94 in15.0 miSSE (160°)2.3 mphPartly Cloudy
7:00 AM32.0 °F24.8 °F75 %29.94 in30.0 miSSE (150°)8.1 mphMostly Cloudy
8:00 AM35.0 °F26.0 °F59 %29.94 in28.0 miSouth (170°)9.2 mphClear
8:00 AM35.6 °F26.6 °F70 %29.94 in30.0 miSouth (180°)8.1 mphMostly Cloudy
9:00 AM39.2 °F26.6 °F61 %29.92 in30.0 miSSE (150°)10.4 mphMostly Cloudy
10:00 AM41.0 °F26.6 °F57 %29.90 in30.0 miSE (140°)11.5 mphMostly Cloudy
11:00 AM44.6 °F28.4 °F53 %29.88 in30.0 miSSE (150°)13.8 mphMostly Cloudy
12:00 PM48.2 °F30.2 °F50 %29.83 in30.0 miSSE (150°)15.0 mphMostly Cloudy
1:00 PM50.0 °F30.2 °F47 %29.80 in30.0 miSSE (150°)17.3 mphMostly Cloudy
2:00 PM52.0 °F33.0 °F37 %29.76 in28.0 miSSE (150°)19.6 mphMostly Cloudy
2:00 PM51.8 °F33.8 °F50 %29.76 in30.0 miSSE (150°)19.6 mph25.3 mphMostly Cloudy
3:00 PM55.4 °F37.4 °F51 %29.73 in30.0 miSouth (190°)15.0 mph24.2 mphMostly Cloudy
4:00 PM59.0 °F35.6 °F42 %29.68 in30.0 miSSW (200°)15.0 mph23.0 mphMostly Cloudy
5:00 PM60.8 °F35.6 °F39 %29.65 in30.0 miSouth (190°)17.3 mphMostly Cloudy
6:00 PM60.8 °F33.8 °F36 %29.63 in30.0 miSouth (190°)17.3 mphMostly Cloudy
7:00 PM59.0 °F33.8 °F39 %29.62 in30.0 miSouth (190°)13.8 mph23.0 mphMostly Cloudy
8:00 PM57.0 °F34.0 °F29 %29.62 in15.0 miSouth (180°)12.7 mphOvercast
8:00 PM57.2 °F33.8 °F41 %29.62 in15.0 miSouth (180°)13.8 mphOvercast
9:00 PM51.8 °F35.6 °F54 %29.66 in15.0 miSSW (200°)11.5 mphOvercast
9:32 PM53.6 °F35.6 °F51 %29.71 in15.0 miWSW (250°)12.7 mphRainLight Rain
10:00 PM53.6 °F41.0 °F62 %29.72 in15.0 miWSW (250°)16.1 mph26.5 mphRainLight Rain
11:00 PM50.0 °F44.6 °F82 %29.70 in15.0 miWSW (240°)12.7 mphRainLight Rain
Hourly data recorded from CYUL, located miles away from Montreal, Quebec







STORIES FROM OUR PARTNERS